[[{"header":{"parameterUnit":"m.s-1","parameterCategory":1,"la1":30.2991,"la2":30.254,"lo1":-89.0895,"lo2":-89.0444,"dy":0.0017,"dx":0.0017,"nx":28,"ny":28,"refTime":"2024-07-24T03:00:00:Z","depth":0,"parameterNumber":2,"parameterNumberName":"U-component_of_WINDS"},"data":[0,0,0,0,0,0,0,0,0,0,0,0,0,0,0,0,0,0,0,0,0,0,0,0,0,0,0,0,0,0,0,0,0,0,0,0,0,0,0,0,0,0,0,0,0,0,0,0,0,0,0,0,0,0,0,0,0,0,-2.677,-2.6769,0,-2.6678,-2.6677,-2.6676,-2.6567,-2.6565,-2.6564,-2.6562,-2.6468,-2.6467,-2.6466,0,0,0,0,0,0,0,0,0,0,0,0,0,-2.6851,-2.685,-2.677,-2.6769,-2.6768,-2.6678,-2.6677,-2.6676,-2.6567,-2.6565,-2.6563,-2.6561,-2.6468,-2.6467,-2.6466,0,0,0,0,0,0,0,0,0,0,0,0,0,-2.6793,-2.685,-2.677,-2.6703,-2.6696,-2.6678,-2.6677,-2.6675,-2.6568,-2.6565,-2.6563,-2.656,-2.6469,-2.6467,-2.6466,-2.6507,0,0,-2.6462,-2.6461,0,0,0,0,0,0,0,0,-2.6797,-2.679,-2.6714,-2.6708,-2.67,-2.6631,-2.6671,-2.6619,-2.6568,-2.6617,-2.6562,-2.6559,-2.6525,-2.6518,-2.6507,-2.6503,-2.6499,-2.6462,-2.6461,-2.646,-2.646,0,0,0,0,0,0,0,-2.6801,-2.6794,-2.6734,-2.6713,-2.6704,-2.6677,-2.6666,-2.666,-2.6586,-2.6612,-2.6604,-2.6595,-2.652,-2.6508,-2.6504,-2.6497,-2.6462,-2.646,-2.6459,-2.6459,-2.6519,-2.6521,0,0,0,0,0,0,-2.6815,-2.6798,-2.6737,-2.6731,-2.6743,-2.6678,-2.6665,-2.6656,-2.6585,-2.6572,-2.6597,-2.659,-2.6512,-2.6505,-2.65,-2.654,-2.646,-2.6459,-2.6458,-2.6517,-2.652,-2.6522,0,0,0,0,0,0,-2.6817,-2.681,-2.674,-2.6762,-2.6751,-2.6679,-2.6669,-2.6655,-2.6643,-2.6574,-2.656,-2.6598,-2.651,-2.6502,-2.6505,-2.6535,-2.6458,-2.6457,-2.6514,-2.6518,-2.6521,-2.6623,0,0,0,0,0,0,-2.682,-2.6812,-2.6827,-2.6763,-2.675,-2.6748,-2.6671,-2.6655,-2.6641,-2.6631,-2.6572,-2.6559,-2.6507,-2.6508,-2.6504,-2.6532,-2.6456,-2.6511,-2.6516,-2.652,-2.6617,-2.663,-2.6641,0,0,0,0,0,-2.6823,-2.686,-2.6828,-2.6822,-2.6768,-2.675,-2.6742,-2.6681,-2.6644,-2.6658,-2.6613,-2.6561,-2.6534,-2.6509,-2.6504,-2.6532,-2.6508,-2.6514,-2.652,-2.6611,-2.6628,-2.6641,0,0,0,0,0,0,-2.693,-2.6851,-2.6814,-2.6832,-2.6799,-2.6732,-2.6748,-2.6701,-2.6677,-2.6669,-2.6595,-2.6582,-2.6594,-2.6564,-2.6538,-2.6566,-2.6513,-2.6518,-2.6585,-2.66,-2.6612,-2.6617,-2.6455,0,0,0,0,0,-2.6956,-2.6948,-2.6879,-2.6902,-2.6887,-2.6821,-2.6811,-2.6766,-2.6728,-2.6714,-2.6669,-2.6634,-2.6617,-2.6607,-2.6588,-2.6613,-2.6597,-2.663,-2.6642,-2.6652,-2.6656,-2.6664,-2.6676,-2.654,-2.654,-2.654,0,0,-2.7009,-2.6965,-2.6964,-2.6922,-2.6891,-2.6883,-2.6809,-2.6805,-2.6799,-2.6713,-2.6712,-2.6679,-2.6635,-2.6648,-2.6652,-2.6623,-2.6691,-2.6659,-2.6668,-2.6666,-2.6671,-2.6684,-2.6695,-2.6544,-2.6544,-2.6543,0,0,-2.71,-2.7068,-2.7081,-2.7051,-2.7004,-2.696,-2.6963,-2.6903,-2.6877,-2.6876,-2.681,-2.6801,-2.6775,-2.6745,-2.6726,-2.6806,-2.6756,-2.6802,-2.6865,-2.6873,-2.6883,-2.6892,-2.6917,-2.6927,-2.6807,-2.6807,-2.6807,0,-2.7172,-2.7158,-2.7094,-2.7093,-2.7075,-2.6998,-2.7009,-2.6984,-2.6934,-2.6922,-2.6892,-2.6854,-2.682,-2.6823,-2.6842,-2.6832,-2.6831,-2.6807,-2.6887,-2.6896,-2.6903,-2.6926,-2.6936,-2.6813,-2.6812,-2.6812,-2.6811,0,-2.7246,-2.7238,-2.7255,-2.7207,-2.7191,-2.7198,-2.7133,-2.7125,-2.7083,-2.7041,-2.7039,-2.6995,-2.6964,-2.6962,-2.6921,-2.6959,-2.6942,-2.6901,-2.6845,-2.6923,-2.6942,-2.6951,-2.6821,-2.6819,-2.6817,-2.6816,0,0,-2.7401,-2.7317,-2.7324,-2.73,-2.7243,-2.7235,-2.7237,-2.7206,-2.7199,-2.7168,-2.7165,-2.7144,-2.7104,-2.7083,-2.7038,-2.7046,-2.7107,-2.7002,-2.7,-2.702,-2.7142,-2.7171,-2.7183,-2.7075,-2.7077,-2.7078,-2.7145,0,-2.7479,-2.7477,-2.7419,-2.7433,-2.7423,-2.7349,-2.735,-2.7314,-2.7276,-2.7261,-2.7219,-2.7203,-2.7154,-2.714,-2.7145,-2.7099,-2.713,-2.7094,-2.707,-2.707,-2.7079,-2.7194,-2.7225,-2.729,-2.7153,-2.7154,-2.7155,0,-2.757,-2.7542,-2.7555,-2.7495,-2.7489,-2.7491,-2.7456,-2.7444,-2.7402,-2.7373,-2.735,-2.7298,-2.7294,-2.7245,-2.7236,-2.7213,-2.72,-2.7176,-2.7177,-2.717,-2.7115,-2.7186,-2.731,-2.7318,-2.7167,-2.7166,-2.7165,0,-2.7677,-2.7643,-2.7645,-2.7628,-2.7559,-2.7562,-2.7533,-2.7489,-2.7473,-2.7444,-2.7432,-2.7403,-2.7387,-2.7365,-2.7306,-2.7276,-2.7304,-2.725,-2.7277,-2.7279,-2.7284,-2.7283,-2.7404,-2.7282,-2.7282,-2.7282,-2.7282,0,-2.7768,-2.7778,-2.7692,-2.7693,-2.7701,-2.7634,-2.7644,-2.7608,-2.7569,-2.7561,-2.7497,-2.749,-2.7415,-2.74,-2.7355,-2.7353,-2.7347,-2.7322,-2.7309,-2.7325,-2.7328,-2.7313,-2.7306,-2.7284,-2.7284,-2.7283,-2.7283,0,-2.7887,-2.7831,-2.7828,-2.7763,-2.7747,-2.7755,-2.7699,-2.7696,-2.7654,-2.7644,-2.7638,-2.7572,-2.755,-2.7491,-2.7454,-2.7424,-2.7433,-2.7412,-2.7447,-2.7438,-2.7468,-2.7464,-2.758,-2.759,-2.7466,-2.7467,-2.7468,0,-2.7948,-2.7953,-2.7888,-2.7878,-2.7852,-2.7837,-2.782,-2.7755,-2.774,-2.7692,-2.7695,-2.7668,-2.7643,-2.7612,-2.7559,-2.753,-2.7505,-2.7548,-2.75,-2.7516,-2.7501,-2.75,-2.7499,-2.7557,-2.7559,-2.756,-2.7561,0,-2.8059,-2.803,-2.8009,-2.7978,-2.796,-2.7932,-2.7901,-2.7896,-2.7823,-2.7809,-2.7786,-2.7767,-2.7729,-2.7702,-2.7665,-2.7634,-2.7584,-2.7577,-2.7581,-2.7596,-2.7615,-2.7601,-2.7471,-2.7574,-2.7573,-2.7572,-2.7571,-2.7571,-2.8148,-2.8148,-2.8102,-2.808,-2.8049,-2.8021,-2.8015,-2.7971,-2.7951,-2.7915,-2.7878,-2.7858,-2.7813,-2.7758,-2.7731,-2.7713,-2.7688,-2.7695,-2.7696,-2.7698,-2.7703,-2.7621,-2.7707,-2.7706,-2.7706,-2.7706,-2.7705,0,-2.8252,-2.8219,-2.82,-2.8157,-2.8139,-2.8096,-2.8059,-2.8046,-2.8029,-2.7993,-2.7969,-2.7941,-2.7915,-2.786,-2.7828,-2.7825,-2.7801,-2.7818,-2.7816,-2.7809,-2.773,-2.7728,-2.7837,-2.7837,-2.7837,-2.7837,-2.7837,-2.7837,-2.8304,-2.8301,-2.8267,-2.8248,-2.8214,-2.8194,-2.8176,-2.8149,-2.8119,-2.8091,-2.8068,-2.8033,-2.7988,-2.7953,-2.7926,-2.791,-2.79,-2.7923,-2.7901,-2.7827,-2.7815,-2.7803,-2.78,-2.7923,-2.7923,-2.798,-2.798,-2.7981]},{"header":{"parameterUnit":"m.s-1","parameterCategory":1,"la1":30.2991,"la2":30.254,"lo1":-89.0895,"lo2":-89.0444,"dy":0.0017,"dx":0.0017,"nx":28,"ny":28,"refTime":"2024-07-24T03:00:00:Z","depth":0,"parameterNumber":3,"parameterNumberName":"V-component_of_WINDS"},"data":[0,0,0,0,0,0,0,0,0,0,0,0,0,0,0,0,0,0,0,0,0,0,0,0,0,0,0,0,0,0,0,0,0,0,0,0,0,0,0,0,0,0,0,0,0,0,0,0,0,0,0,0,0,0,0,0,0,0,0.9304,0.9304,0,0.9307,0.9307,0.9307,0.9292,0.9291,0.9291,0.929,0.9292,0.9292,0.9293,0,0,0,0,0,0,0,0,0,0,0,0,0,0.9287,0.9288,0.9304,0.9304,0.9305,0.9307,0.9307,0.9307,0.9292,0.9291,0.9291,0.929,0.9292,0.9292,0.9293,0,0,0,0,0,0,0,0,0,0,0,0,0,0.9293,0.9288,0.9304,0.9297,0.9297,0.9307,0.9307,0.9307,0.9292,0.9291,0.9291,0.929,0.9292,0.9292,0.9293,0.9309,0,0,0.9295,0.9295,0,0,0,0,0,0,0,0,0.9292,0.9293,0.9298,0.9298,0.9297,0.9298,0.9301,0.9308,0.9292,0.9294,0.929,0.929,0.9294,0.9295,0.9297,0.9309,0.9309,0.9295,0.9295,0.9295,0.9296,0,0,0,0,0,0,0,0.9292,0.9293,0.9305,0.9298,0.9298,0.9294,0.9294,0.9302,0.9298,0.9294,0.9292,0.9293,0.9294,0.9296,0.9296,0.9309,0.9295,0.9295,0.9296,0.9296,0.9337,0.9338,0,0,0,0,0,0,0.9293,0.9293,0.9305,0.9305,0.9293,0.9295,0.9295,0.9299,0.9297,0.9297,0.9294,0.9292,0.9295,0.9296,0.9296,0.9317,0.9295,0.9296,0.9296,0.9337,0.9338,0.9338,0,0,0,0,0,0,0.9292,0.9294,0.9305,0.9299,0.93,0.9296,0.93,0.9299,0.9301,0.9297,0.9296,0.9296,0.9295,0.9296,0.9307,0.9316,0.9296,0.9297,0.9336,0.9337,0.9338,0.9357,0,0,0,0,0,0,0.9292,0.9294,0.93,0.9299,0.93,0.9315,0.9301,0.9299,0.9302,0.9301,0.93,0.9299,0.9294,0.9306,0.9307,0.9317,0.9297,0.9335,0.9336,0.9338,0.9355,0.9358,0.9361,0,0,0,0,0,0.9291,0.9305,0.93,0.9302,0.9308,0.9316,0.9317,0.9311,0.9303,0.9309,0.9307,0.9299,0.9315,0.9307,0.9309,0.9319,0.9334,0.9336,0.9337,0.9354,0.9357,0.9361,0,0,0,0,0,0,0.9306,0.9304,0.93,0.9313,0.9315,0.9313,0.9321,0.9315,0.9319,0.9317,0.931,0.931,0.9322,0.9321,0.9312,0.9335,0.9323,0.9325,0.9335,0.9339,0.9342,0.9341,0.9298,0,0,0,0,0,0.9311,0.9318,0.9316,0.9328,0.9329,0.9325,0.9328,0.9324,0.9325,0.9326,0.9324,0.9326,0.9331,0.9335,0.934,0.9355,0.9355,0.9363,0.9366,0.9368,0.937,0.9379,0.9382,0.9344,0.9344,0.9344,0,0,0.9321,0.9321,0.9325,0.9331,0.9332,0.9339,0.9326,0.9333,0.9339,0.9327,0.9337,0.9337,0.9338,0.9351,0.9357,0.9351,0.9381,0.937,0.9372,0.9372,0.9381,0.9385,0.9388,0.9345,0.9344,0.9344,0,0,0.9343,0.9343,0.9354,0.9356,0.9357,0.9355,0.9357,0.9357,0.9356,0.9367,0.9359,0.9365,0.9374,0.9376,0.9378,0.9402,0.9395,0.9404,0.9419,0.9428,0.9431,0.9433,0.9443,0.9446,0.9406,0.9406,0.9406,0,0.9355,0.9366,0.936,0.9369,0.9372,0.9362,0.9373,0.9375,0.9378,0.938,0.9374,0.9386,0.9386,0.94,0.9406,0.9408,0.9411,0.9404,0.9431,0.9433,0.9436,0.9445,0.9448,0.9407,0.9407,0.9406,0.9406,0,0.9381,0.9389,0.9397,0.9401,0.9405,0.9415,0.9411,0.9416,0.9411,0.941,0.9421,0.9421,0.9426,0.9429,0.9425,0.9443,0.944,0.9432,0.942,0.9441,0.9449,0.9452,0.9408,0.9408,0.9408,0.9407,0,0,0.9412,0.9413,0.9417,0.9419,0.9421,0.9427,0.9436,0.9442,0.9446,0.9449,0.9457,0.9466,0.946,0.9462,0.9458,0.9465,0.9486,0.9457,0.9457,0.9463,0.9507,0.9513,0.9517,0.9481,0.9482,0.9482,0.9507,0,0.9434,0.9451,0.9447,0.9463,0.9471,0.9462,0.9471,0.9473,0.9472,0.9478,0.9477,0.9484,0.9474,0.9476,0.9483,0.9482,0.9495,0.948,0.9489,0.9489,0.9489,0.9521,0.9527,0.9551,0.951,0.9511,0.9511,0,0.9461,0.9466,0.9484,0.9486,0.9489,0.9497,0.9502,0.9508,0.9511,0.9509,0.9513,0.9507,0.9517,0.9506,0.952,0.951,0.9513,0.9513,0.9514,0.9515,0.9502,0.9523,0.9558,0.9562,0.9516,0.9516,0.9515,0,0.9483,0.9494,0.9506,0.9508,0.951,0.9516,0.9517,0.9519,0.9523,0.9528,0.9531,0.9536,0.954,0.9544,0.9541,0.9532,0.9556,0.9543,0.9555,0.9555,0.956,0.956,0.9596,0.9562,0.9562,0.9562,0.9562,0,0.9508,0.9519,0.9516,0.9523,0.9536,0.9532,0.9544,0.9545,0.9547,0.9554,0.9547,0.9555,0.9549,0.9556,0.9554,0.9566,0.9567,0.9567,0.9566,0.9568,0.9568,0.957,0.9568,0.9563,0.9563,0.9563,0.9562,0,0.9534,0.9532,0.9545,0.9547,0.9547,0.9557,0.9558,0.9565,0.9564,0.9574,0.9576,0.9574,0.9582,0.9579,0.9587,0.9586,0.9602,0.9599,0.9601,0.9601,0.9613,0.9612,0.9652,0.9658,0.9619,0.962,0.962,0,0.955,0.9559,0.9562,0.9567,0.9569,0.9577,0.9581,0.9577,0.9582,0.9586,0.9593,0.9601,0.9607,0.962,0.9619,0.9626,0.9623,0.9637,0.9624,0.9626,0.9624,0.9624,0.9625,0.9639,0.964,0.964,0.964,0,0.958,0.9579,0.9586,0.9593,0.9598,0.9603,0.9607,0.9612,0.9608,0.9614,0.9623,0.9627,0.9636,0.9644,0.965,0.9651,0.9646,0.9645,0.9648,0.965,0.9651,0.9651,0.9609,0.9644,0.9643,0.9643,0.9643,0.9643,0.9602,0.961,0.9614,0.9622,0.9625,0.9629,0.9637,0.9637,0.9644,0.9651,0.9648,0.9658,0.9662,0.967,0.9672,0.968,0.9674,0.9679,0.968,0.9681,0.9683,0.965,0.9681,0.9681,0.968,0.968,0.968,0,0.9632,0.9634,0.9642,0.9649,0.9655,0.965,0.9654,0.966,0.9669,0.9673,0.9679,0.9689,0.9697,0.9698,0.9705,0.9711,0.9709,0.9714,0.9713,0.9714,0.9687,0.9684,0.9715,0.9715,0.9715,0.9715,0.9715,0.9715,0.9649,0.9662,0.9661,0.9676,0.9678,0.9688,0.9692,0.9696,0.9699,0.9711,0.9718,0.9718,0.9721,0.9729,0.9736,0.9736,0.9739,0.9745,0.9744,0.9719,0.9715,0.9712,0.9709,0.9745,0.9745,0.977,0.977,0.977]}]]